Location: Newark
(6.1731°S, 35.7419°E)
Time: 14:30:26
(UTC+00:00)

Envisat - Visible Passes

Search period start: 28 January 2020 00:00
Search period end: 07 February 2020 00:00
Orbit: 764 x 766 km, 98.1° (Epoch: 28 January)

Date Brightness Start Highest point End Pass type
(mag) Time Alt. Az. Time Alt. Az. Time Alt. Az.
28 Jan 6.1 02:58:03 10° ENE 03:01:33 19° ESE 03:05:04 10° SSE visible
28 Jan 6.2 17:05:20 10° SW 17:07:58 14° WSW 17:10:36 10° WNW visible
29 Jan 4.6 16:26:38 10° S 16:31:22 40° WSW 16:36:05 10° NW visible
31 Jan 6.3 02:47:48 10° ENE 02:50:19 14° ESE 02:52:51 10° SE visible
31 Jan 6.0 16:53:09 10° SSW 16:56:44 19° WSW 17:00:18 10° WNW visible
01 Feb 4.0 16:15:09 10° S 16:20:07 55° WSW 16:25:03 10° NNW visible
02 Feb 5.4 03:11:21 10° NE 03:15:40 29° ESE 03:20:00 10° SSE visible
03 Feb 5.5 16:41:18 10° SSW 16:45:30 26° WSW 16:49:41 10° NW visible
05 Feb 6.0 03:00:39 10° NE 03:04:26 21° ESE 03:08:12 10° SSE visible
05 Feb 6.4 17:08:44 10° SW 17:10:50 13° WSW 17:12:56 10° W visible
06 Feb 4.9 16:29:38 10° SSW 16:34:15 35° WSW 16:38:50 10° NW visible
